When you browse on this site, cookies collect data to enhance your experience and personalize the content and advertising you see.
Visit our Privacy Policy to learn more. By continuing to use the site, you agree to this use of cookies and data.
  • In Romania
  • List of Countries
  • For 7 days
  • Water Temperature
  • Satellite Maps
  • Weather Map
  • Weather Widgets
  • user-avatar
    Login

    Hourly Weather Trinidad

    Today, 26 March, Tuesday

    Time Temperature Precipitation Wind Pressure Humidity
    00:00 +25°C° 0 mm 1 mps 744 mmHg 95%
    01:00 +25°C° 0 mm 1 mps 744 mmHg 95%
    02:00 +24°C° 0 mm 1 mps 744 mmHg 95%
    03:00 +24°C° 0.2 mm 1 mps 744 mmHg 96%
    04:00 +24°C° 0.2 mm 1 mps 744 mmHg 96%
    05:00 +24°C° 0.2 mm 1 mps 744 mmHg 97%
    06:00 +24°C° 0 mm 1 mps 744 mmHg 95%
    07:00 +25°C° 0 mm 2 mps 745 mmHg 94%
    08:00 +26°C° 0 mm 2 mps 745 mmHg 92%
    09:00 +27°C° 0.6 mm 2 mps 745 mmHg 88%
    10:00 +29°C° 0.6 mm 2 mps 745 mmHg 83%
    11:00 +30°C° 0.6 mm 3 mps 745 mmHg 79%
    12:00 +31°C° 1.1 mm 2 mps 744 mmHg 77%
    13:00 +31°C° 1.1 mm 2 mps 743 mmHg 76%
    14:00 +32°C° 1.1 mm 2 mps 743 mmHg 74%
    15:00 +31°C° 1.4 mm 2 mps 742 mmHg 78%
    16:00 +31°C° 1.4 mm 1 mps 741 mmHg 81%
    17:00 +30°C° 1.4 mm 1 mps 741 mmHg 84%
    18:00 +29°C° 0.1 mm 1 mps 741 mmHg 86%
    19:00 +28°C° 0.1 mm 1 mps 742 mmHg 88%
    20:00 +27°C° 0.1 mm 1 mps 742 mmHg 90%
    21:00 +27°C° 0 mm 1 mps 743 mmHg 90%
    22:00 +27°C° 0 mm 1 mps 743 mmHg 90%
    23:00 +26°C° 0 mm 2 mps 744 mmHg 89%

    Tomorrow, 27 March, Wednesday

    Time Temperature Precipitation Wind Pressure Humidity
    00:00 +26°C° 1.1 mm 2 mps 744 mmHg 91%
    01:00 +26°C° 1.1 mm 2 mps 744 mmHg 94%
    02:00 +25°C° 1.1 mm 3 mps 744 mmHg 96%
    03:00 +25°C° 1.2 mm 2 mps 744 mmHg 96%
    04:00 +25°C° 1.2 mm 2 mps 744 mmHg 96%
    05:00 +24°C° 1.2 mm 2 mps 745 mmHg 96%
    06:00 +24°C° 0.2 mm 2 mps 745 mmHg 96%
    07:00 +24°C° 0.2 mm 3 mps 746 mmHg 95%
    08:00 +24°C° 0.2 mm 3 mps 746 mmHg 95%
    09:00 +26°C° 0.2 mm 3 mps 747 mmHg 88%
    10:00 +27°C° 0.2 mm 3 mps 747 mmHg 82%
    11:00 +29°C° 0.2 mm 4 mps 748 mmHg 76%
    12:00 +30°C° 0 mm 3 mps 747 mmHg 71%
    13:00 +31°C° 0 mm 3 mps 746 mmHg 66%
    14:00 +34°C° 0 mm 3 mps 745 mmHg 61%
    15:00 +33°C° 0.9 mm 3 mps 744 mmHg 69%
    16:00 +31°C° 0.9 mm 2 mps 744 mmHg 77%
    17:00 +30°C° 0.9 mm 1 mps 743 mmHg 84%
    18:00 +29°C° 0.3 mm 1 mps 744 mmHg 87%
    19:00 +27°C° 0.3 mm 1 mps 744 mmHg 90%
    20:00 +26°C° 0.3 mm 1 mps 745 mmHg 92%
    21:00 +25°C° 0 mm 1 mps 745 mmHg 91%
    22:00 +25°C° 0 mm 2 mps 746 mmHg 90%
    23:00 +24°C° 0 mm 2 mps 746 mmHg 88%

    Day after tomorrow, 28 March, Thursday

    Time Temperature Precipitation Wind Pressure Humidity
    00:00 +24°C° 0 mm 2 mps 746 mmHg 87%
    01:00 +23°C° 0 mm 2 mps 746 mmHg 86%
    02:00 +23°C° 0 mm 2 mps 745 mmHg 85%
    03:00 +23°C° 0 mm 2 mps 745 mmHg 83%
    04:00 +23°C° 0 mm 2 mps 745 mmHg 81%
    05:00 +23°C° 0 mm 2 mps 745 mmHg 79%
    06:00 +23°C° 0 mm 2 mps 746 mmHg 78%
    07:00 +24°C° 0 mm 3 mps 746 mmHg 76%
    08:00 +25°C° 0 mm 3 mps 747 mmHg 74%
    09:00 +26°C° 0 mm 3 mps 747 mmHg 71%
    10:00 +27°C° 0 mm 3 mps 747 mmHg 68%
    11:00 +29°C° 0 mm 2 mps 748 mmHg 64%
    12:00 +31°C° 0 mm 3 mps 747 mmHg 59%
    13:00 +33°C° 0 mm 3 mps 746 mmHg 53%
    14:00 +35°C° 0 mm 3 mps 745 mmHg 48%
    15:00 +35°C° 0 mm 2 mps 744 mmHg 51%
    16:00 +35°C° 0 mm 2 mps 744 mmHg 54%
    17:00 +33°C° 0 mm 1 mps 743 mmHg 57%
    18:00 +32°C° 0 mm 1 mps 743 mmHg 62%
    19:00 +30°C° 0 mm 1 mps 743 mmHg 66%
    20:00 +28°C° 0 mm 1 mps 744 mmHg 70%
    21:00 +27°C° 0 mm 1 mps 744 mmHg 71%
    22:00 +27°C° 0 mm 1 mps 745 mmHg 72%
    23:00 +26°C° 0 mm 1 mps 745 mmHg 73%

    29 March, Friday

    Time Temperature Precipitation Wind Pressure Humidity
    00:00 +26°C° 0 mm 1 mps 745 mmHg 73%
    01:00 +26°C° 0 mm 1 mps 745 mmHg 73%
    02:00 +25°C° 0 mm 1 mps 744 mmHg 73%
    03:00 +25°C° 0 mm 1 mps 744 mmHg 75%
    04:00 +25°C° 0 mm 1 mps 744 mmHg 76%
    05:00 +25°C° 0 mm 1 mps 744 mmHg 77%
    06:00 +25°C° 0 mm 1 mps 745 mmHg 77%
    07:00 +26°C° 0 mm 2 mps 745 mmHg 77%
    08:00 +26°C° 0 mm 2 mps 746 mmHg 76%
    09:00 +26°C° 0.4 mm 2 mps 746 mmHg 80%
    10:00 +27°C° 0.4 mm 1 mps 746 mmHg 84%
    11:00 +27°C° 0.4 mm 1 mps 746 mmHg 88%
    12:00 +29°C° 0 mm 1 mps 745 mmHg 79%
    13:00 +31°C° 0 mm 2 mps 744 mmHg 70%
    14:00 +34°C° 0 mm 2 mps 743 mmHg 61%
    15:00 +32°C° 1.2 mm 2 mps 742 mmHg 69%
    16:00 +31°C° 1.2 mm 2 mps 742 mmHg 78%
    17:00 +30°C° 1.2 mm 2 mps 741 mmHg 86%
    18:00 +29°C° 0.3 mm 2 mps 741 mmHg 89%
    19:00 +28°C° 0.3 mm 1 mps 742 mmHg 92%
    20:00 +26°C° 0.3 mm 1 mps 742 mmHg 94%
    21:00 +26°C° 0 mm 1 mps 743 mmHg 95%
    22:00 +26°C° 0 mm 1 mps 743 mmHg 95%
    23:00 +26°C° 0 mm 1 mps 744 mmHg 95%

    30 March, Saturday

    Time Temperature Precipitation Wind Pressure Humidity
    00:00 +25°C° 0 mm 1 mps 743 mmHg 95%
    01:00 +25°C° 0 mm 1 mps 743 mmHg 95%
    02:00 +25°C° 0 mm 1 mps 743 mmHg 95%
    03:00 +23°C° 0 mm 0 mps 743 mmHg 96%
    04:00 +23°C° 0 mm 0 mps 743 mmHg 96%
    05:00 +23°C° 0 mm 0 mps 743 mmHg 96%
    06:00 +23°C° 0.2 mm 0 mps 743 mmHg 95%
    07:00 +24°C° 0.2 mm 0 mps 744 mmHg 94%
    08:00 +25°C° 0.2 mm 0 mps 745 mmHg 92%
    09:00 +26°C° 1.8 mm 0 mps 745 mmHg 90%
    10:00 +27°C° 1.8 mm 0 mps 745 mmHg 87%
    11:00 +30°C° 1.8 mm 1 mps 745 mmHg 84%
    12:00 +30°C° 1.7 mm 1 mps 744 mmHg 86%
    13:00 +29°C° 1.7 mm 1 mps 743 mmHg 88%
    14:00 +29°C° 1.7 mm 1 mps 742 mmHg 90%
    15:00 +29°C° 0.9 mm 1 mps 742 mmHg 90%
    16:00 +29°C° 0.9 mm 1 mps 741 mmHg 91%
    17:00 +29°C° 0.9 mm 1 mps 741 mmHg 92%
    18:00 +28°C° 0 mm 1 mps 741 mmHg 93%
    19:00 +27°C° 0 mm 1 mps 742 mmHg 95%
    20:00 +27°C° 0 mm 1 mps 742 mmHg 97%
    21:00 +27°C° 0.1 mm 1 mps 742 mmHg 97%
    22:00 +26°C° 0.1 mm 1 mps 743 mmHg 97%
    23:00 +26°C° 0.1 mm 1 mps 743 mmHg 98%

    31 March, Sunday

    Time Temperature Precipitation Wind Pressure Humidity
    00:00 +26°C° 0.1 mm 1 mps 743 mmHg 98%
    01:00 +26°C° 0.1 mm 1 mps 743 mmHg 98%
    02:00 +26°C° 0.1 mm 1 mps 742 mmHg 98%
    03:00 +26°C° 0 mm 1 mps 742 mmHg 98%
    04:00 +26°C° 0 mm 1 mps 742 mmHg 98%
    05:00 +26°C° 0 mm 1 mps 742 mmHg 98%
    06:00 +26°C° 0 mm 1 mps 743 mmHg 97%
    07:00 +26°C° 0 mm 1 mps 744 mmHg 96%
    08:00 +27°C° 0 mm 1 mps 744 mmHg 95%
    09:00 +27°C° 0.1 mm 2 mps 744 mmHg 91%
    10:00 +28°C° 0.1 mm 2 mps 744 mmHg 88%
    11:00 +29°C° 0.1 mm 2 mps 744 mmHg 84%
    12:00 +30°C° 0 mm 2 mps 743 mmHg 79%
    13:00 +31°C° 0 mm 2 mps 743 mmHg 74%
    14:00 +32°C° 0 mm 2 mps 742 mmHg 69%
    15:00 +32°C° 0 mm 2 mps 741 mmHg 71%
    16:00 +32°C° 0 mm 2 mps 741 mmHg 73%
    17:00 +32°C° 0 mm 2 mps 740 mmHg 74%
    18:00 +30°C° 0 mm 2 mps 741 mmHg 78%
    19:00 +29°C° 0 mm 2 mps 741 mmHg 83%
    20:00 +28°C° 0 mm 1 mps 742 mmHg 87%
    21:00 +28°C° 0 mm 1 mps 742 mmHg 87%
    22:00 +28°C° 0 mm 2 mps 743 mmHg 88%
    23:00 +27°C° 0 mm 2 mps 743 mmHg 89%
    Show more